Temp
-5 -4 -4 -4 -4 -4 -3 -3 -3 -3 -3 -3 -3 -3 -3 -3 -3 -2 -2 -2 -2 -2 -2 -2 -2 -2 -2 -3 -2 -2 -2 -2 -3 -3 -3 -3 -4 -3 -3 -5 -7 -6 -6 -6 -5 -6 -7
-5 -5 -4 -4 -4 -4 -4 -3 -3 -3 -3 -3 -3 -3 -3 -3 -3 -3 -3 -2 -2 -2 -2 -2 -2 -2 -2 -2 -3 -2 -2 -2 -2 -3 -3 -3 -4 -4 -3 -4 -7 -7 -5 -6 -6 -7 -7
-5 -5 -4 -4 -4 -4 -4 -3 -3 -4 -4 -3 -3 -3 -3 -3 -3 -3 -3 -3 -3 -2 -2 -2 -2 -2 -2 -2 -3 -3 -3 -3 -3 -3 -3 -3 -3 -4 -4 -3 -6 -8 -6 -6 -4 -7 -7
-5 -5 -4 -4 -4 -4 -4 -4 -4 -4 -4 -4 -4 -3 -3 -3 -3 -3 -3 -3 -3 -2 -2 -2 -2 -2 -3 -2 -3 -3 -3 -3 -3 -3 -3 -3 -3 -3 -3 -4 -4 -5 -6 -6 -6 -6 -7
-6 -5 -5 -4 -4 -4 -4 -4 -4 -4 -4 -4 -4 -4 -4 -3 -3 -3 -3 -3 -3 -2 -2 -2 -2 -2 -2 -3 -3 -3 -3 -4 -3 -3 -3 -3 -3 -3 -4 -4 -5 -6 -6 -7 -7 -6 -7
-6 -5 -5 -5 -4 -4 -4 -4 -4 -4 -4 -4 -4 -4 -4 -4 -3 -3 -3 -3 -3 -3 -3 -2 -2 -2 -2 -3 -3 -3 -3 -4 -4 -4 -4 -3 -3 -3 -3 -5 -4 -6 -7 -7 -6 -6 -7
-6 -5 -5 -5 -4 -4 -4 -4 -4 -4 -4 -4 -4 -4 -4 -4 -4 -4 -3 -3 -3 -3 -3 -3 -3 -2 -3 -2 -3 -4 -4 -4 -4 -4 -4 -4 -4 -4 -4 -4 -5 -8 -8 -7 -6 -6 -6
-6 -6 -5 -5 -5 -4 -4 -4 -4 -4 -4 -4 -4 -4 -4 -4 -4 -4 -4 -3 -3 -3 -3 -3 -3 -2 -3 -3 -3 -3 -3 -4 -5 -5 -5 -5 -4 -5 -5 -4 -6 -7 -8 -8 -7 -6 -7
-6 -6 -5 -5 -5 -5 -5 -5 -5 -4 -4 -4 -4 -4 -4 -4 -4 -4 -4 -4 -4 -3 -3 -3 -3 -3 -3 -3 -4 -4 -4 -4 -5 -5 -5 -5 -5 -5 -5 -6 -5 -6 -7 -7 -8 -7 -7
-7 -6 -6 -6 -5 -5 -5 -5 -5 -5 -5 -5 -5 -5 -5 -5 -5 -5 -5 -4 -4 -4 -4 -4 -4 -4 -4 -4 -4 -4 -4 -4 -4 -5 -5 -5 -6 -6 -5 -7 -8 -6 -7 -7 -8 -7 -7
-8 -7 -7 -6 -6 -6 -6 -6 -6 -6 -6 -6 -6 -5 -5 -5 -5 -5 -5 -5 -5 -5 -5 -4 -4 -5 -5 -5 -4 -4 -4 -4 -5 -5 -5 -5 -6 -6 -6 -7 -8 -7 -7 -7 -8 -7 -7
-8 -8 -7 -7 -7 -7 -7 -7 -7 -7 -7 -6 -6 -6 -6 -6 -6 -6 -6 -6 -6 -6 -6 -5 -5 -5 -5 -5 -5 -5 -5 -5 -5 -5 -5 -5 -6 -6 -6 -7 -8 -7 -7 -7 -7 -7 -6
-9 -8 -8 -8 -7 -7 -7 -7 -7 -7 -7 -7 -7 -7 -7 -7 -7 -7 -7 -6 -6 -7 -7 -7 -6 -6 -6 -6 -6 -5 -5 -5 -5 -5 -5 -6 -5 -6 -6 -6 -7 -7 -7 -6 -7 -7 -5
-9 -9 -8 -8 -8 -8 -7 -7 -7 -7 -7 -7 -7 -7 -7 -7 -7 -7 -7 -7 -7 -8 -9 -9 -10 -6 -6 -6 -6 -6 -6 -6 -6 -6 -6 -6 -5 -6 -6 -6 -6 -7 -7 -7 -7 -6 -6
-10 -9 -9 -9 -9 -8 -8 -8 -8 -7 -7 -7 -7 -7 -8 -8 -8 -8 -8 -8 -9 -9 -10 -10 -10 -10 -8 -7 -7 -6 -7 -6 -6 -6 -6 -6 -5 -7 -8 -8 -7 -7 -7 -6 -7 -7 -7
-10 -10 -10 -9 -9 -9 -8 -8 -8 -8 -8 -8 -8 -8 -8 -8 -8 -8 -8 -9 -10 -9 -8 -9 -9 -9 -8 -9 -9 -9 -8 -7 -7 -7 -7 -7 -7 -7 -8 -8 -8 -7 -7 -7 -7 -7 -7
-10 -10 -10 -10 -9 -9 -9 -9 -9 -9 -9 -8 -9 -9 -9 -9 -9 -9 -9 -10 -10 -9 -8 -8 -8 -9 -9 -9 -10 -10 -10 -9 -9 -9 -8 -7 -7 -7 -8 -8 -8 -8 -7 -7 -7 -7 -7
-10 -10 -10 -10 -10 -10 -9 -9 -9 -9 -9 -9 -9 -10 -10 -10 -10 -10 -10 -10 -10 -9 -8 -9 -9 -9 -9 -9 -10 -10 -10 -10 -9 -9 -9 -9 -9 -8 -8 -8 -8 -8 -8 -8 -8 -7 -7
-11 -10 -10 -10 -10 -10 -10 -10 -10 -10 -10 -10 -10 -10 -10 -10 -10 -10 -10 -10 -10 -10 -10 -9 -9 -9 -9 -10 -9 -8 -8 -9 -10 -10 -10 -10 -9 -9 -9 -8 -8 -8 -8 -8 -8 -8 -7
-11 -11 -10 -10 -10 -10 -10 -10 -10 -10 -10 -10 -10 -10 -10 -10 -10 -10 -10 -11 -10 -11 -10 -10 -9 -9 -9 -9 -9 -9 -9 -9 -10 -10 -10 -10 -10 -9 -9 -10 -9 -8 -8 -8 -8 -8 -8
-11 -10 -10 -10 -10 -10 -10 -10 -10 -10 -10 -10 -10 -10 -10 -10 -10 -10 -10 -10 -10 -10 -10 -10 -10 -9 -9 -9 -9 -9 -9 -10 -11 -9 -11 -11 -10 -10 -9 -9 -9 -8 -8 -8 -8 -8 -8
-10 -10 -10 -10 -10 -9 -9 -9 -9 -10 -10 -10 -10 -10 -11 -11 -10 -11 -11 -11 -11 -11 -11 -10 -10 -10 -10 -10 -10 -10 -11 -10 -10 -10 -11 -11 -9 -9 -8 -9 -9 -9 -8 -8 -8 -8 -8
-10 -10 -10 -10 -9 -9 -9 -10 -10 -10 -10 -10 -10 -10 -10 -10 -10 -10 -11 -10 -10 -10 -10 -10 -10 -10 -10 -10 -10 -10 -10 -10 -9 -10 -10 -10 -10 -10 -9 -9 -9 -9 -8 -8 -8 -8 -8
-10 -10 -10 -10 -10 -10 -10 -10 -10 -11 -11 -11 -10 -10 -10 -10 -10 -10 -10 -10 -10 -10 -10 -10 -10 -10 -10 -10 -10 -10 -9 -10 -9 -9 -9 -10 -10 -10 -9 -10 -10 -8 -9 -9 -8 -8 -8
-10 -10 -10 -10 -10 -10 -10 -10 -11 -11 -11 -11 -11 -11 -10 -11 -10 -10 -10 -10 -10 -10 -10 -10 -10 -10 -10 -10 -10 -10 -10 -10 -11 -10 -11 -11 -11 -10 -10 -10 -10 -9 -9 -10 -10 -8 -8
-10 -10 -10 -10 -10 -11 -11 -11 -11 -11 -11 -11 -11 -11 -11 -11 -10 -10 -11 -11 -10 -10 -10 -10 -10 -10 -10 -10 -10 -10 -10 -11 -11 -11 -10 -10 -10 -10 -11 -10 -9 -9 -9 -10 -10 -9 -8
-11 -11 -11 -11 -11 -11 -11 -11 -11 -11 -11 -11 -11 -11 -11 -11 -11 -10 -11 -11 -11 -11 -10 -11 -10 -10 -11 -10 -10 -10 -11 -11 -10 -11 -11 -11 -11 -10 -11 -10 -10 -9 -9 -10 -10 -10 -9
-11 -11 -11 -11 -11 -11 -11 -12 -12 -12 -11 -11 -11 -11 -11 -11 -12 -11 -11 -11 -11 -11 -11 -11 -11 -11 -11 -11 -10 -11 -11 -10 -10 -10 -10 -11 -11 -10 -9 -9 -9 -10 -10 -10 -10 -10 -10
-11 -11 -11 -11 -11 -11 -11 -11 -12 -12 -12 -12 -11 -11 -11 -11 -11 -11 -12 -12 -11 -12 -11 -11 -11 -11 -11 -11 -11 -11 -10 -10 -10 -10 -11 -11 -12 -11 -11 -10 -11 -10 -9 -10 -9 -10 -10
Height
5869 5871 5873 5875 5877 5878 5879 5880 5881 5882 5884 5885 5887 5887 5889 5891 5893 5894 5896 5898 5899 5901 5902 5903 5904 5905 5907 5909 5909 5909 5910 5911 5912 5913 5914 5915 5916 5916 5914 5915 5919 5915 5920 5922 5922 5926 5925
5864 5867 5869 5872 5874 5875 5877 5878 5879 5880 5882 5883 5884 5885 5886 5887 5889 5892 5893 5895 5896 5898 5899 5900 5902 5903 5905 5907 5906 5908 5909 5910 5911 5911 5912 5913 5914 5914 5915 5913 5917 5919 5920 5921 5922 5922 5921
5859 5862 5866 5868 5870 5872 5873 5875 5876 5877 5879 5881 5882 5883 5883 5884 5886 5887 5889 5890 5892 5894 5895 5897 5899 5901 5902 5903 5904 5906 5907 5908 5908 5910 5910 5911 5911 5912 5912 5912 5912 5916 5919 5919 5920 5921 5923
5854 5857 5861 5864 5866 5868 5870 5871 5872 5874 5876 5877 5878 5879 5880 5882 5883 5884 5886 5887 5888 5890 5891 5893 5894 5896 5898 5901 5901 5903 5904 5906 5907 5908 5909 5909 5910 5911 5910 5910 5911 5913 5918 5919 5920 5920 5922
5849 5853 5856 5859 5862 5864 5866 5867 5868 5870 5871 5872 5874 5875 5876 5877 5879 5880 5882 5883 5885 5886 5888 5889 5891 5892 5893 5897 5898 5899 5901 5903 5904 5905 5906 5906 5908 5908 5909 5910 5911 5912 5915 5915 5915 5918 5918
5844 5848 5851 5854 5857 5860 5861 5863 5864 5865 5867 5868 5869 5871 5872 5873 5874 5876 5877 5879 5881 5883 5885 5886 5887 5890 5891 5893 5893 5895 5896 5898 5900 5902 5903 5904 5904 5906 5907 5909 5910 5909 5915 5915 5916 5918 5915
5838 5842 5846 5849 5852 5855 5856 5858 5860 5861 5862 5863 5865 5866 5868 5869 5870 5871 5873 5875 5879 5881 5880 5881 5884 5883 5886 5887 5888 5889 5890 5893 5896 5898 5900 5900 5902 5904 5905 5906 5906 5908 5913 5913 5915 5915 5912
5833 5837 5841 5844 5847 5849 5851 5852 5854 5855 5856 5858 5860 5861 5863 5864 5866 5867 5869 5871 5871 5875 5876 5877 5879 5879 5881 5881 5883 5884 5886 5890 5891 5895 5895 5896 5900 5900 5901 5902 5902 5906 5909 5913 5913 5915 5913
5828 5832 5835 5839 5841 5843 5845 5846 5848 5849 5850 5852 5853 5855 5857 5858 5860 5862 5864 5866 5867 5869 5871 5873 5874 5874 5876 5878 5879 5880 5882 5884 5887 5888 5891 5892 5896 5896 5897 5900 5902 5902 5906 5911 5912 5915 5914
5823 5827 5830 5833 5835 5837 5839 5841 5842 5843 5844 5846 5848 5849 5851 5852 5856 5857 5859 5860 5862 5863 5866 5868 5869 5869 5873 5873 5875 5876 5878 5880 5881 5886 5886 5888 5891 5891 5893 5895 5900 5902 5904 5907 5910 5911 5909
5818 5821 5824 5828 5830 5832 5834 5835 5837 5838 5839 5841 5842 5844 5845 5847 5849 5851 5853 5855 5856 5858 5860 5862 5866 5867 5867 5870 5871 5873 5874 5876 5879 5881 5881 5887 5886 5887 5888 5892 5899 5898 5901 5902 5904 5907 5906
5814 5817 5820 5823 5825 5827 5829 5830 5832 5834 5835 5837 5838 5839 5840 5842 5843 5845 5847 5849 5852 5855 5854 5853 5860 5861 5863 5865 5867 5868 5870 5872 5874 5875 5877 5881 5882 5883 5886 5889 5892 5894 5896 5896 5899 5900 5900
5811 5814 5816 5819 5821 5823 5825 5826 5828 5829 5831 5832 5833 5834 5835 5836 5838 5839 5841 5844 5848 5850 5850 5851 5851 5855 5857 5861 5862 5863 5866 5868 5870 5872 5874 5876 5878 5879 5882 5883 5887 5889 5891 5893 5895 5896 5898
5809 5811 5813 5816 5818 5819 5821 5822 5823 5825 5825 5826 5827 5828 5829 5831 5832 5833 5835 5839 5844 5846 5845 5847 5845 5847 5854 5855 5858 5859 5860 5864 5866 5867 5869 5870 5873 5877 5879 5880 5884 5886 5888 5889 5891 5894 5896
5807 5809 5812 5813 5815 5816 5817 5818 5820 5821 5822 5822 5823 5824 5824 5826 5827 5828 5831 5834 5836 5833 5835 5839 5839 5844 5847 5851 5853 5854 5856 5858 5861 5863 5865 5865 5868 5871 5876 5880 5881 5883 5881 5887 5887 5890 5891
5806 5809 5811 5812 5813 5814 5815 5815 5816 5817 5817 5818 5819 5819 5820 5821 5821 5823 5826 5829 5831 5829 5830 5832 5835 5840 5842 5846 5851 5852 5851 5854 5856 5858 5860 5863 5861 5865 5869 5871 5874 5874 5880 5881 5882 5884 5884
5807 5809 5811 5811 5812 5812 5812 5813 5813 5813 5813 5814 5815 5815 5816 5816 5817 5819 5821 5823 5822 5824 5825 5830 5831 5835 5836 5839 5840 5845 5848 5850 5852 5853 5854 5855 5858 5864 5864 5864 5868 5871 5872 5875 5877 5878 5879
5808 5810 5811 5811 5811 5810 5810 5810 5811 5810 5810 5811 5811 5812 5812 5812 5815 5815 5818 5818 5820 5819 5823 5825 5826 5829 5832 5834 5834 5838 5840 5845 5849 5850 5850 5851 5852 5852 5857 5861 5863 5869 5867 5869 5871 5874 5875
5810 5811 5812 5811 5810 5810 5810 5810 5809 5809 5808 5808 5808 5807 5808 5809 5810 5811 5812 5812 5813 5816 5818 5820 5821 5823 5825 5831 5833 5833 5833 5839 5841 5840 5842 5842 5843 5843 5847 5852 5856 5858 5863 5864 5866 5868 5871
5812 5812 5812 5812 5811 5811 5810 5809 5808 5807 5806 5806 5805 5805 5805 5804 5805 5807 5808 5811 5811 5811 5811 5814 5816 5817 5820 5822 5825 5827 5828 5832 5830 5831 5831 5833 5836 5838 5839 5844 5851 5853 5857 5860 5861 5860 5863
5813 5813 5812 5812 5811 5810 5809 5808 5807 5805 5804 5803 5802 5802 5803 5802 5802 5803 5803 5804 5805 5807 5807 5807 5809 5811 5813 5815 5816 5818 5820 5823 5823 5822 5821 5821 5825 5830 5833 5835 5839 5842 5845 5850 5854 5856 5858
5813 5812 5812 5811 5809 5808 5807 5805 5804 5802 5801 5801 5800 5799 5799 5799 5799 5800 5800 5801 5801 5801 5801 5802 5802 5804 5805 5807 5808 5808 5810 5808 5808 5809 5811 5812 5816 5817 5821 5827 5829 5829 5835 5840 5845 5848 5851
5811 5811 5810 5808 5807 5805 5803 5801 5799 5797 5797 5797 5796 5796 5796 5796 5796 5796 5795 5795 5795 5795 5797 5796 5796 5797 5797 5800 5798 5797 5799 5800 5800 5804 5805 5807 5807 5809 5811 5818 5819 5819 5828 5833 5836 5841 5844
5810 5808 5807 5806 5804 5802 5800 5798 5795 5793 5792 5792 5792 5792 5793 5792 5792 5791 5792 5792 5791 5790 5791 5792 5791 5791 5794 5792 5790 5793 5793 5793 5793 5797 5800 5801 5802 5803 5804 5809 5804 5816 5820 5824 5827 5830 5836
5807 5806 5804 5803 5801 5799 5797 5795 5792 5790 5789 5788 5788 5788 5788 5788 5787 5787 5787 5786 5786 5786 5786 5787 5786 5786 5785 5785 5785 5785 5787 5787 5787 5789 5792 5792 5792 5793 5792 5793 5791 5803 5811 5815 5817 5817 5825
5804 5802 5801 5799 5797 5795 5794 5791 5789 5787 5786 5784 5783 5782 5783 5782 5781 5782 5781 5780 5780 5780 5782 5781 5780 5779 5779 5779 5779 5778 5779 5779 5780 5780 5780 5781 5781 5782 5783 5781 5781 5793 5801 5803 5802 5801 5819
5800 5799 5797 5795 5793 5791 5789 5787 5785 5783 5781 5779 5778 5777 5776 5776 5773 5775 5775 5774 5773 5773 5775 5774 5773 5774 5773 5772 5772 5772 5772 5770 5771 5773 5770 5772 5773 5772 5775 5771 5772 5786 5790 5792 5787 5796 5800
5796 5795 5793 5791 5789 5786 5784 5781 5779 5777 5776 5774 5772 5770 5769 5770 5767 5767 5766 5766 5765 5765 5766 5767 5766 5767 5765 5764 5765 5765 5764 5763 5763 5765 5764 5766 5763 5763 5762 5762 5766 5774 5777 5774 5772 5777 5786
5791 5790 5788 5786 5783 5781 5778 5776 5774 5771 5769 5768 5765 5764 5763 5762 5763 5759 5759 5757 5757 5756 5756 5757 5758 5758 5757 5756 5756 5756 5756 5758 5759 5759 5757 5757 5758 5760 5758 5757 5761 5763 5767 5765 5766 5768 5780
Wind_Speed
22 18 16 13 11 9 8 7 10 12 12 11 13 14 14 15 15 14 14 14 13 12 11 9 11 10 9 8 6 6 6 7 6 5 6 7 9 12 13 8 11 7 12 12 6 3 8
24 21 18 16 14 13 11 10 9 12 14 14 13 14 16 16 16 15 15 15 15 14 13 12 10 10 9 7 10 8 9 9 8 6 6 8 12 13 14 9 9 19 10 11 8 5 8
27 24 22 19 17 16 14 13 12 12 13 14 15 14 15 16 16 17 17 17 17 17 16 15 15 14 11 13 13 11 11 10 9 8 7 9 11 12 14 12 10 13 8 8 7 10 5
28 26 24 21 19 17 16 16 15 15 14 15 15 15 15 15 16 16 17 17 17 18 18 17 17 15 15 11 16 15 14 13 12 11 10 11 10 10 10 11 10 5 2 6 4 10 16
27 26 24 22 21 19 19 18 18 18 18 17 16 17 17 16 17 16 17 18 18 18 18 18 18 17 20 15 20 20 18 18 15 13 12 13 12 12 12 10 6 10 9 7 15 13 15
27 26 24 23 22 22 20 21 21 20 20 20 19 19 19 19 18 18 19 19 19 19 18 19 19 19 19 18 21 20 22 20 18 17 15 15 14 13 12 12 8 7 4 13 15 18 8
27 26 25 24 24 23 23 24 24 24 23 22 22 21 21 22 22 21 21 21 21 20 20 21 17 21 16 18 18 20 22 23 21 19 16 16 14 11 11 11 14 6 9 17 14 6 12
27 27 26 25 25 26 26 26 26 26 25 23 23 22 22 23 24 25 25 23 24 21 22 21 18 20 17 19 18 20 22 21 21 19 20 20 12 12 12 13 18 14 9 9 15 14 19
28 27 27 27 27 28 28 27 26 25 24 23 23 23 23 24 25 26 26 25 25 24 22 22 20 20 18 18 18 19 19 21 21 23 22 22 16 16 12 8 17 19 12 6 18 3 19
27 27 26 26 27 27 26 25 24 23 23 23 23 23 23 24 25 26 24 26 25 25 22 23 21 22 16 17 17 18 16 19 21 19 24 23 20 19 18 9 13 14 18 12 16 14 26
23 24 24 24 24 24 23 23 22 22 21 21 21 22 23 25 24 24 27 25 25 23 24 26 20 17 20 18 18 16 16 16 13 15 22 14 24 24 20 15 16 22 20 16 16 16 23
18 19 19 20 21 20 20 20 19 18 17 17 17 18 21 24 24 25 25 25 24 22 21 27 18 18 20 19 18 18 17 17 17 16 18 17 23 27 23 23 24 20 20 25 21 22 20
16 16 16 16 16 17 17 17 16 17 17 18 19 19 20 20 24 26 26 25 23 19 22 22 25 23 20 19 19 21 19 18 17 17 15 14 18 22 25 26 22 23 18 19 25 21 13
13 13 13 13 13 13 13 13 14 14 15 15 16 18 20 20 21 24 25 24 19 15 14 14 24 27 18 21 18 21 22 19 18 17 17 17 16 15 16 24 22 26 21 18 17 20 15
8 9 9 9 9 9 9 10 11 12 13 14 14 15 16 18 20 21 23 21 21 30 26 23 24 26 21 15 18 22 22 22 20 20 19 18 19 11 8 13 20 20 30 21 19 17 22
5 5 6 6 6 7 8 9 11 12 14 14 14 15 16 16 17 18 18 17 26 33 35 34 31 21 18 10 12 17 21 22 20 21 22 17 22 18 17 14 19 22 21 26 23 25 30
5 4 3 3 2 3 4 6 7 10 11 11 11 11 13 14 14 15 15 19 29 33 34 34 37 31 29 21 21 22 24 21 18 17 19 24 26 20 27 16 18 23 21 30 29 27 27
9 8 7 6 5 3 2 3 5 7 8 9 9 10 11 12 13 14 14 19 25 32 22 20 24 25 27 32 32 26 24 21 11 20 24 27 26 29 33 25 19 23 27 22 34 32 31
12 12 11 10 9 7 6 5 5 6 7 8 8 11 12 13 14 15 19 22 26 22 22 20 21 22 25 26 32 33 33 25 22 24 29 33 32 34 30 31 31 27 24 28 25 24 36
12 11 9 9 9 8 8 7 7 8 8 9 10 8 10 11 15 16 17 17 21 17 23 21 22 24 25 27 28 31 31 26 30 30 34 37 37 36 35 31 28 28 28 28 27 33 28
7 6 7 7 8 9 9 10 9 9 9 10 10 11 6 9 11 12 16 19 18 18 20 22 23 23 24 26 28 30 28 23 30 33 33 38 39 37 41 38 26 33 32 27 31 28 35
2 5 7 9 11 12 14 14 13 12 10 9 11 12 9 11 10 11 12 12 15 17 19 21 21 21 24 26 26 28 24 33 39 42 40 42 36 34 35 43 37 37 40 34 29 22 32
6 8 10 12 13 17 17 17 16 14 13 12 13 12 12 13 13 13 15 15 16 17 17 19 21 22 24 23 29 34 32 37 41 38 41 41 41 33 29 35 47 47 39 44 38 29 21
10 11 13 13 16 18 17 16 14 11 12 13 14 13 13 15 15 17 17 18 19 18 16 17 19 21 19 25 30 29 29 36 39 35 36 37 37 35 34 30 43 39 37 35 42 40 32
12 13 13 16 18 18 17 16 15 13 12 13 15 16 16 16 17 18 18 18 18 18 19 19 20 20 21 23 22 25 24 25 28 32 31 32 40 45 44 45 46 45 40 27 31 46 44
13 14 16 18 18 17 17 16 16 16 15 15 16 18 19 20 23 21 20 21 21 21 19 19 22 24 23 23 23 24 24 24 24 25 31 31 36 40 44 44 38 39 35 31 38 45 44
14 16 18 18 19 20 20 20 20 19 19 18 19 20 20 20 25 23 24 25 26 24 21 22 25 24 25 25 25 23 24 27 27 26 33 25 32 36 36 43 46 30 30 36 46 43 43
15 16 19 20 22 23 24 23 22 20 19 20 20 22 21 20 25 25 25 25 28 29 27 24 26 23 25 28 27 26 26 28 28 27 31 28 38 33 39 39 42 35 38 37 52 52 50
20 21 22 23 24 24 24 24 24 24 23 23 24 22 23 23 23 27 26 28 28 28 30 30 28 28 28 28 29 30 31 27 21 20 24 32 34 37 40 39 42 44 37 41 44 44 47
Wind_Direction
234 235 239 246 254 265 286 281 257 251 253 254 251 250 249 241 242 242 243 242 242 243 243 246 243 245 240 232 242 245 253 252 249 231 212 209 229 243 244 148 279 316 269 310 324 225 272
233 235 238 245 254 264 276 283 272 257 249 251 256 252 250 253 246 241 240 240 240 241 241 242 241 237 234 225 241 241 243 244 248 247 233 210 220 238 261 210 208 232 254 270 271 301 54
231 234 237 244 253 263 271 278 273 263 256 252 250 252 252 250 251 250 249 249 250 251 250 248 245 244 244 237 236 237 237 242 243 243 243 236 233 223 247 250 190 244 264 303 332 337 318
231 234 237 242 251 260 268 276 274 265 261 257 257 255 255 251 248 248 247 248 249 251 253 253 255 257 255 257 251 248 246 245 242 240 237 240 243 260 244 248 260 145 279 5 288 331 334
230 233 237 242 251 260 266 272 275 269 265 261 259 258 258 256 253 250 250 250 249 250 252 257 258 257 255 250 248 248 245 242 241 241 239 242 242 233 234 239 199 122 123 331 285 290 315
229 232 236 241 250 257 263 269 273 270 266 264 261 261 260 259 258 257 254 253 252 253 256 255 256 259 258 254 252 251 246 242 238 238 239 243 244 242 242 219 180 127 320 272 306 279 300
229 233 237 244 249 256 261 266 270 269 268 266 261 260 259 258 258 260 259 257 258 258 259 259 264 260 258 254 243 240 240 239 236 238 241 243 243 252 246 224 183 165 280 291 324 316 336
230 235 238 245 250 257 261 265 267 268 268 265 262 259 256 255 255 255 258 259 257 256 259 260 262 265 260 253 248 243 245 243 239 234 234 242 243 245 243 228 187 174 223 246 309 318 316
228 234 240 245 250 255 260 264 265 266 266 265 263 259 255 252 251 253 255 256 259 259 259 263 261 261 254 257 249 246 245 242 236 229 231 237 233 237 228 223 213 194 206 201 262 335 274
227 231 237 243 249 254 258 260 262 262 262 262 260 258 256 254 252 251 252 254 255 256 256 254 249 251 259 251 245 238 234 234 235 231 232 231 231 241 235 237 293 241 194 213 279 229 257
223 229 236 244 248 251 254 256 256 256 256 257 258 257 256 254 252 248 248 249 251 254 256 253 250 246 241 243 245 239 229 232 232 225 233 225 222 240 233 209 235 267 190 214 244 248 262
222 226 233 241 246 249 250 251 248 247 250 256 261 262 260 256 252 249 247 244 246 248 252 258 249 245 241 239 241 240 241 238 234 230 237 221 226 226 228 210 217 249 219 219 223 239 254
219 221 225 233 240 242 245 246 246 248 254 260 262 264 265 263 254 249 245 244 243 241 243 266 257 243 242 234 240 243 237 239 239 242 244 232 232 235 235 232 234 241 246 246 220 224 250
212 214 219 228 235 239 242 247 254 260 266 268 269 267 263 260 258 251 245 240 236 214 198 244 276 256 239 238 236 243 245 237 243 249 246 239 231 239 255 258 261 236 243 237 234 228 260
185 197 205 213 222 230 238 247 254 261 265 267 271 274 271 267 259 251 245 237 206 201 192 214 222 245 254 248 252 242 240 244 241 243 251 255 246 200 278 288 277 257 249 247 226 227 250
161 176 194 206 220 235 248 258 262 264 264 264 265 266 265 263 256 249 242 223 208 221 218 214 232 238 225 177 270 285 275 256 248 247 244 236 251 221 193 247 259 274 248 233 216 242 235
138 147 161 169 196 237 261 270 276 272 269 269 266 263 257 253 250 241 230 217 210 223 232 229 232 236 244 181 190 229 262 259 248 265 263 251 244 215 202 195 254 263 264 232 228 221 244
112 108 104 101 91 73 21 314 290 283 282 275 268 261 257 245 238 232 224 221 229 237 261 239 240 234 233 212 196 197 203 232 197 257 242 260 243 247 218 204 197 251 274 276 228 232 233
105 100 90 76 62 46 25 359 334 317 305 294 281 263 252 243 235 229 231 231 234 237 247 243 239 235 232 224 234 236 243 221 200 234 236 239 238 240 237 231 214 217 241 267 244 233 236
104 90 74 58 46 34 19 1 336 314 303 294 289 277 260 248 237 235 233 242 249 253 245 245 242 244 246 242 233 236 244 240 213 233 242 240 244 240 237 242 234 220 226 244 267 228 231
95 69 40 24 13 1 352 343 334 317 298 288 291 287 291 267 259 249 248 246 245 256 255 249 245 243 243 243 245 244 241 233 212 229 245 255 249 243 238 241 222 211 221 230 256 270 238
24 2 351 344 339 336 331 322 310 305 289 281 282 282 275 264 259 249 245 239 246 247 245 250 247 241 243 241 242 237 243 230 219 224 232 248 259 248 236 234 225 216 214 216 218 238 264
323 325 327 329 328 327 326 320 304 291 278 262 267 271 273 272 264 260 253 254 250 253 253 254 250 250 247 244 245 240 238 244 245 239 244 242 252 258 242 232 239 233 233 214 213 214 228
311 315 317 317 323 327 329 332 326 305 281 270 262 261 262 261 261 264 271 271 266 260 256 257 257 258 263 259 251 257 263 250 254 257 261 260 255 257 257 253 246 245 230 228 221 211 216
305 306 307 313 320 322 324 326 326 318 302 282 272 267 265 266 265 265 273 269 268 266 261 258 259 260 255 258 261 262 260 257 258 259 255 255 249 255 256 246 258 228 232 228 234 218 210
298 300 304 309 312 313 314 314 314 312 303 290 281 276 272 270 268 268 271 270 266 265 262 264 258 259 261 261 258 260 261 262 259 259 261 256 249 250 252 257 238 220 231 225 227 230 214
295 300 303 307 309 310 311 310 307 301 296 296 289 280 277 277 277 274 267 266 268 267 262 259 258 261 265 262 262 263 260 260 261 243 262 249 261 260 246 256 249 237 228 226 236 230 219
297 301 302 304 305 306 305 305 304 303 295 291 286 288 286 279 279 279 277 274 269 266 262 256 258 259 258 259 259 258 260 257 258 258 261 250 260 263 262 261 251 245 246 246 230 223 219
301 302 302 303 304 304 303 303 302 300 295 293 292 286 285 284 283 281 276 275 273 272 266 259 257 257 256 255 259 260 262 268 274 272 264 268 269 264 269 271 267 253 242 248 244 213 214